TimePST,TemperatureF,Dew PointF,Humidity,Sea Level PressureIn,VisibilityMPH,Wind Direction,Wind SpeedMPH,Gust SpeedMPH,PrecipitationIn,Events,Conditions,WindDirDegrees,DateUTC
12:52 AM,57.9,57.9,100,29.96,5.0,Calm,Calm,-,0.01,Rain,Light Rain,0,2013-01-26 08:52:00
1:52 AM,57.9,-9999,N/A,29.94,4.0,Calm,Calm,-,0.03,Rain,Light Rain,0,2013-01-26 09:52:00
2:52 AM,57.9,57.9,100,29.91,5.0,WNW,4.6,-,0.02,Rain,Light Rain,300,2013-01-26 10:52:00
3:52 AM,57.9,57.9,100,29.88,6.0,Calm,Calm,-,0.01,Rain,Light Rain,0,2013-01-26 11:52:00
4:52 AM,57.0,-9999,N/A,29.87,3.0,Calm,Calm,-,0.00,,Overcast,0,2013-01-26 12:52:00
5:52 AM,57.0,57.0,100,29.88,3.0,Calm,Calm,-,0.00,,Overcast,0,2013-01-26 13:52:00
6:18 AM,55.4,-9999,N/A,29.88,2.5,SSW,5.8,-,N/A,,Overcast,210,2013-01-26 14:18:00
6:34 AM,57.2,-9999,N/A,29.89,3.0,SSW,5.8,-,N/A,,Overcast,200,2013-01-26 14:34:00
6:52 AM,57.0,-9999,N/A,29.89,3.0,Calm,Calm,-,N/A,,Overcast,0,2013-01-26 14:52:00
7:00 AM,57.2,-9999,N/A,29.88,2.0,SSW,3.5,-,0.00,Rain,Light Rain,200,2013-01-26 15:00:00
7:31 AM,57.2,57.2,100,29.88,1.8,East,4.6,-,0.00,Rain,Light Rain,90,2013-01-26 15:31:00
7:40 AM,57.2,57.2,100,29.89,2.0,East,4.6,-,0.00,,Overcast,100,2013-01-26 15:40:00
7:52 AM,57.9,57.9,100,29.90,2.5,ESE,3.5,-,0.00,,Mostly Cloudy,110,2013-01-26 15:52:00
8:19 AM,57.2,57.2,100,29.90,3.0,Calm,Calm,-,N/A,,Mostly Cloudy,0,2013-01-26 16:19:00
8:30 AM,59.0,59.0,100,29.90,3.0,Calm,Calm,-,N/A,,Mostly Cloudy,0,2013-01-26 16:30:00
8:52 AM,59.0,59.0,100,29.91,4.0,SE,4.6,-,N/A,,Overcast,130,2013-01-26 16:52:00
9:52 AM,62.1,62.1,100,29.93,6.0,South,3.5,-,N/A,,Scattered Clouds,170,2013-01-26 17:52:00
10:08 AM,60.8,60.8,100,29.92,5.0,Calm,Calm,-,N/A,,Mostly Cloudy,0,2013-01-26 18:08:00
10:52 AM,62.1,59.0,90,29.92,10.0,Calm,Calm,-,N/A,,Mostly Cloudy,0,2013-01-26 18:52:00
11:27 AM,64.4,60.8,88,29.91,10.0,South,5.8,-,N/A,,Overcast,180,2013-01-26 19:27:00
11:48 AM,64.4,59.0,83,29.89,10.0,South,5.8,-,N/A,,Mostly Cloudy,180,2013-01-26 19:48:00
11:52 AM,64.9,59.0,81,29.90,10.0,Variable,4.6,-,N/A,,Mostly Cloudy,0,2013-01-26 19:52:00
12:00 PM,66.2,60.8,83,29.89,10.0,Variable,3.5,-,N/A,,Mostly Cloudy,0,2013-01-26 20:00:00
12:26 PM,66.2,59.0,78,29.88,10.0,South,4.6,-,N/A,,Mostly Cloudy,190,2013-01-26 20:26:00
12:52 PM,64.9,59.0,81,29.87,10.0,SSE,5.8,-,N/A,,Overcast,150,2013-01-26 20:52:00
1:52 PM,64.9,60.1,84,29.86,10.0,Variable,5.8,-,N/A,,Mostly Cloudy,0,2013-01-26 21:52:00
2:52 PM,66.0,59.0,78,29.86,10.0,SSE,8.1,-,N/A,,Scattered Clouds,150,2013-01-26 22:52:00
3:52 PM,64.0,57.9,80,29.86,10.0,SE,8.1,-,N/A,,Partly Cloudy,130,2013-01-26 23:52:00
4:52 PM,63.0,57.9,84,29.88,10.0,SE,5.8,-,N/A,,Overcast,140,2013-01-27 00:52:00
5:52 PM,61.0,57.0,87,29.90,10.0,South,3.5,-,N/A,,Overcast,190,2013-01-27 01:52:00
6:52 PM,62.1,57.0,84,29.91,10.0,Calm,Calm,-,N/A,,Overcast,0,2013-01-27 02:52:00
7:52 PM,62.1,57.0,84,29.91,10.0,Calm,Calm,-,0.01,,Overcast,0,2013-01-27 03:52:00
8:52 PM,61.0,57.0,87,29.91,10.0,Calm,Calm,-,N/A,,Overcast,0,2013-01-27 04:52:00
9:52 PM,62.1,57.9,86,29.92,10.0,Calm,Calm,-,N/A,,Overcast,0,2013-01-27 05:52:00
10:19 PM,62.6,57.2,82,29.92,10.0,Calm,Calm,-,N/A,,Overcast,0,2013-01-27 06:19:00
10:52 PM,62.1,57.9,86,29.93,10.0,Calm,Calm,-,N/A,,Overcast,0,2013-01-27 06:52:00
11:52 PM,61.0,59.0,93,29.93,7.0,South,4.6,-,N/A,,Overcast,180,2013-01-27 07:52:00